Location: Caltech
(34.1382°N, 118.1253°W)
Time: 13:42:20
(UTC-07:00)

Iridium 95 - Visible Passes

Search period start: 27 April 2015 00:00
Search period end: 07 May 2015 00:00
Orbit: 776 x 779 km, 86.4° (Epoch: 27 April)

Date Brightness Start Highest point End Pass type
(mag) Time Alt. Az. Time Alt. Az. Time Alt. Az.
27 Apr 5.4 03:41:50 80° NNW 03:41:50 80° NNW 03:46:48 10° N visible
28 Apr 6.3 03:08:34 48° ENE 03:08:34 48° ENE 03:13:08 10° NNE visible
28 Apr 7.2 04:49:03 15° WNW 04:49:13 15° WNW 04:52:03 10° NW visible
29 Apr 7.4 02:35:17 25° ENE 02:35:17 25° ENE 02:39:00 10° NNE visible
29 Apr 6.5 04:15:46 29° WNW 04:15:46 29° WNW 04:19:50 10° NNW visible
30 Apr 8.1 02:02:00 13° ENE 02:02:00 13° ENE 02:03:54 10° NE visible
30 Apr 5.9 03:42:29 51° NW 03:42:29 51° NW 03:46:49 10° N visible
01 May 6.0 03:09:11 57° NNE 03:09:11 57° NNE 03:13:23 10° N visible
02 May 7.0 02:35:52 34° ENE 02:35:52 34° ENE 02:39:33 10° NNE visible
02 May 7.1 04:16:21 19° WNW 04:16:21 19° WNW 04:19:18 10° NNW visible
03 May 7.8 02:02:32 19° ENE 02:02:32 19° ENE 02:05:09 10° NE visible
03 May 6.5 03:43:01 33° NW 03:43:01 33° NW 03:46:41 10° NNW visible
04 May 6.2 03:09:40 48° NNW 03:09:40 48° NNW 03:13:29 10° N visible
05 May 6.7 02:36:20 41° NE 02:36:20 41° NE 02:39:54 10° N visible
05 May 7.5 04:16:48 13° WNW 04:16:48 13° WNW 04:18:14 10° NW visible
06 May 7.4 02:02:58 25° NE 02:02:58 25° NE 02:05:52 10° NNE visible
06 May 7.0 03:43:27 23° WNW 03:43:27 23° WNW 03:46:20 10° NNW visible
